BRO-21

导读

BRO-21(NORAD编号69007)是由法国航天初创公司Unseenlabs开发的射频监测卫星,于2026年5月3日搭乘SpaceX猎鹰9号火箭,从美国范登堡太空军基地发射升空。这是一次拼车发射任务,BRO-21与韩国CAS500-2成像卫星等45个载荷共同进入太阳同步轨道。该卫星主要用于射频信号监测,可支持海上监视、非法船舶活动识别等应用,是Unseenlabs持续拓展空间态势感知能力的一部分。目前卫星已进入预定轨道,处于在轨运行状态。

基本信息
目录编号:
69007
目录名称:
BRO-21
国际标识:
2026-100AD
轨道中心:
EARTH
卫星名称:
BRO-21
卫星全名:
BRO-21
卫星状态:
在轨 (已飞行124 天)
发射日期:
2026-05-03 UTC
国别 :
法国 (FR)
星等 :
--
轨道信息
数据来源 国际轨道数据
星历时间: 2026-09-03T13:56:30+0800
1天前
查看轨道信息
半长轴: 6878.428km
偏心率: 0.0009166
轨道倾角: 97.392°
近地点辐角 133.131°
升交点赤经 142.842°
平近点角 227.070°
近地点: 493.986km
远地点: 506.596km
周期: 94.622分钟
每日圈数: 15.218401
详细信息
使用方式:
暂无
2D轨道图
3D轨道图
轨道高度分析图
轨道倾角分析图
轨道综合分析图
查看轨道综合分析图
交会数据列表
事件ID 空间交会对象 最接近时刻(TCA) 交会距离 交会风险概率(CRP) 交会风险指数(CRI) 操作
CDM_260831-021706-399106-900725
OBJECT K (63991)
BRO-21 (69007)
2026-08-31T
02:17:10+0000
1.018 km
极远距离
2.590279E-5 中风险 0.63
CDM_260906-135502-950706-900721
BRO-21 (69007)
2026-09-06T
13:55:10+0000
1.285 km
极远距离
1.116832E-5 中风险 0.56
CDM_260831-004206-399106-900725
OBJECT K (63991)
BRO-21 (69007)
2026-08-31T
00:42:28+0000
1.713 km
极远距离
4.467029E-6 低风险 0.48
CDM_260831-035106-399106-900725
OBJECT K (63991)
BRO-21 (69007)
2026-08-31T
03:51:52+0000
2.054 km
极远距离
2.705773E-6 低风险 0.44
CDM_260905-100506-669206-900722
NUSAT-52 (66692)
BRO-21 (69007)
2026-09-05T
10:05:21+0000
2.265 km
极远距离
2.157694E-6 低风险 0.42
CDM_260907-012406-594006-900721
OBJECT C (65940)
BRO-21 (69007)
2026-09-07T
01:24:07+0000
2.372 km
极远距离
1.96051E-6 低风险 0.41
CDM_260905-215005-802106-900722
CSC-2 (58021)
BRO-21 (69007)
2026-09-05T
21:50:40+0000
2.381 km
极远距离
1.948205E-6 低风险 0.41
CDM_260904-112206-443606-900721
BRO-21 (69007)
2026-09-04T
11:22:19+0000
2.510 km
极远距离
1.750617E-6 低风险 0.4
CDM_260905-201905-584406-900721
HORUS 2 (55844)
BRO-21 (69007)
2026-09-05T
20:19:13+0000
2.595 km
极远距离
1.664978E-6 低风险 0.39
CDM_260830-192505-991806-900727
OBJECT B (59918)
BRO-21 (69007)
2026-08-30T
19:25:54+0000
2.685 km
极远距离
1.443989E-6 低风险 0.38